TimeEDT,TemperatureF,Dew PointF,Humidity,Sea Level PressureIn,VisibilityMPH,Wind Direction,Wind SpeedMPH,Gust SpeedMPH,PrecipitationIn,Events,Conditions,WindDirDegrees,DateUTC
12:51 AM,55.9,54.0,93,29.91,10.0,ESE,5.8,-,N/A,,Mostly Cloudy,110,2013-05-07 04:51:00
1:51 AM,54.0,53.1,97,29.90,10.0,NE,4.6,-,N/A,,Clear,40,2013-05-07 05:51:00
2:51 AM,54.0,52.0,93,29.90,10.0,NE,3.5,-,N/A,,Clear,50,2013-05-07 06:51:00
3:51 AM,53.1,52.0,96,29.90,7.0,Calm,Calm,-,N/A,,Clear,0,2013-05-07 07:51:00
3:59 AM,53.6,51.8,94,29.91,1.2,Calm,Calm,-,N/A,,Clear,0,2013-05-07 07:59:00
4:07 AM,51.8,51.8,100,29.91,0.5,Calm,Calm,-,N/A,Fog,Fog,0,2013-05-07 08:07:00
4:11 AM,53.6,51.8,94,29.91,1.0,Calm,Calm,-,N/A,,Mist,0,2013-05-07 08:11:00
4:15 AM,53.6,51.8,94,29.91,2.5,Calm,Calm,-,N/A,,Scattered Clouds,0,2013-05-07 08:15:00
4:18 AM,53.6,51.8,94,29.91,2.5,Calm,Calm,-,N/A,,Mostly Cloudy,0,2013-05-07 08:18:00
4:51 AM,53.1,52.0,96,29.90,2.0,North,3.5,-,N/A,,Overcast,350,2013-05-07 08:51:00
5:03 AM,53.6,51.8,94,29.90,2.0,North,3.5,-,N/A,,Overcast,360,2013-05-07 09:03:00
5:51 AM,52.0,51.1,97,29.91,2.0,North,3.5,-,N/A,,Overcast,360,2013-05-07 09:51:00
5:58 AM,53.6,51.8,94,29.91,2.0,North,3.5,-,N/A,,Overcast,360,2013-05-07 09:58:00
6:39 AM,53.6,51.8,94,29.92,0.5,North,3.5,-,N/A,Fog,Fog,360,2013-05-07 10:39:00
6:46 AM,53.6,51.8,94,29.92,0.5,NNW,3.5,-,N/A,Fog,Fog,340,2013-05-07 10:46:00
6:51 AM,53.1,52.0,96,29.92,0.5,NNW,3.5,-,N/A,Fog,Fog,340,2013-05-07 10:51:00
7:04 AM,53.6,53.6,100,29.92,2.0,NNW,3.5,-,N/A,,Overcast,340,2013-05-07 11:04:00
7:13 AM,53.6,53.6,100,29.92,1.0,NW,3.5,-,N/A,,Overcast,320,2013-05-07 11:13:00
7:18 AM,53.6,53.6,100,29.93,0.5,NNW,4.6,-,N/A,Fog,Fog,330,2013-05-07 11:18:00
7:39 AM,53.6,53.6,100,29.93,0.5,Calm,Calm,-,N/A,Fog,Fog,0,2013-05-07 11:39:00
7:51 AM,55.0,53.1,93,29.93,4.0,North,3.5,-,N/A,,Overcast,350,2013-05-07 11:51:00
8:51 AM,55.9,54.0,93,29.94,7.0,North,3.5,-,N/A,,Overcast,360,2013-05-07 12:51:00
9:34 AM,55.4,53.6,94,29.95,10.0,Calm,Calm,-,N/A,,Overcast,0,2013-05-07 13:34:00
9:51 AM,57.0,54.0,89,29.95,10.0,North,3.5,-,N/A,,Overcast,360,2013-05-07 13:51:00
10:51 AM,59.0,55.0,87,29.96,10.0,NNW,3.5,-,N/A,,Overcast,340,2013-05-07 14:51:00
11:49 AM,60.8,55.4,82,29.96,10.0,NW,4.6,-,N/A,,Overcast,310,2013-05-07 15:49:00
11:51 AM,60.8,55.4,82,29.96,10.0,WNW,4.6,-,N/A,,Overcast,300,2013-05-07 15:51:00
12:39 PM,62.6,55.4,77,29.95,10.0,Calm,Calm,-,N/A,,Overcast,0,2013-05-07 16:39:00
12:51 PM,64.0,55.0,73,29.94,10.0,Calm,Calm,-,N/A,,Mostly Cloudy,0,2013-05-07 16:51:00
1:35 PM,66.2,55.4,68,29.93,10.0,Variable,4.6,-,N/A,,Overcast,0,2013-05-07 17:35:00
1:51 PM,66.9,55.0,66,29.92,10.0,Calm,Calm,-,N/A,,Mostly Cloudy,0,2013-05-07 17:51:00
2:51 PM,63.0,55.0,75,29.91,4.0,Calm,Calm,-,0.00,Rain,Light Rain,0,2013-05-07 18:51:00
3:26 PM,60.8,59.0,94,29.93,1.0,ENE,4.6,-,0.07,Rain,Rain,60,2013-05-07 19:26:00
3:51 PM,60.1,57.9,93,29.93,1.0,ENE,4.6,-,0.18,Rain-Thunderstorm,Thunderstorms and Rain,70,2013-05-07 19:51:00
4:28 PM,60.8,57.2,88,29.92,4.0,Calm,Calm,-,0.10,Rain,Light Rain,0,2013-05-07 20:28:00
4:51 PM,61.0,57.9,90,29.91,4.0,NNE,4.6,-,0.10,,Overcast,20,2013-05-07 20:51:00
5:51 PM,62.1,57.9,86,29.90,10.0,Calm,Calm,-,N/A,,Scattered Clouds,0,2013-05-07 21:51:00
6:51 PM,61.0,57.0,87,29.91,10.0,NNW,3.5,-,N/A,,Partly Cloudy,330,2013-05-07 22:51:00
7:51 PM,59.0,57.0,93,29.92,10.0,Calm,Calm,-,N/A,,Scattered Clouds,0,2013-05-07 23:51:00
8:51 PM,57.9,55.9,93,29.92,9.0,Calm,Calm,-,N/A,,Clear,0,2013-05-08 00:51:00
9:20 PM,55.4,55.4,100,29.93,1.5,WNW,3.5,-,N/A,,Clear,290,2013-05-08 01:20:00
9:39 PM,57.2,55.4,94,29.93,3.0,Calm,Calm,-,N/A,,Clear,0,2013-05-08 01:39:00
9:51 PM,57.0,55.9,96,29.93,6.0,Calm,Calm,-,N/A,,Clear,0,2013-05-08 01:51:00
10:13 PM,57.2,55.4,94,29.94,2.0,Calm,Calm,-,N/A,,Clear,0,2013-05-08 02:13:00
10:22 PM,55.4,55.4,100,29.94,3.0,Calm,Calm,-,N/A,,Scattered Clouds,0,2013-05-08 02:22:00
10:29 PM,55.4,55.4,100,29.94,2.0,Calm,Calm,-,N/A,,Scattered Clouds,0,2013-05-08 02:29:00
10:40 PM,55.4,53.6,94,29.94,0.8,Calm,Calm,-,N/A,,Scattered Clouds,0,2013-05-08 02:40:00
10:46 PM,55.4,53.6,94,29.94,0.2,Calm,Calm,-,N/A,Fog,Fog,0,2013-05-08 02:46:00
10:51 PM,55.0,54.0,96,29.93,0.8,Calm,Calm,-,N/A,,Mostly Cloudy,0,2013-05-08 02:51:00
10:59 PM,55.4,53.6,94,29.93,1.2,Calm,Calm,-,N/A,,Mostly Cloudy,0,2013-05-08 02:59:00
11:06 PM,55.4,53.6,94,29.94,0.8,Calm,Calm,-,N/A,,Mostly Cloudy,0,2013-05-08 03:06:00
11:27 PM,53.6,53.6,100,29.94,0.2,Calm,Calm,-,N/A,Fog,Fog,0,2013-05-08 03:27:00
11:39 PM,53.6,53.6,100,29.93,0.2,SW,3.5,-,N/A,Fog,Fog,230,2013-05-08 03:39:00
11:51 PM,54.0,53.1,97,29.93,0.2,Calm,Calm,-,N/A,Fog,Fog,0,2013-05-08 03:51:00